When you browse on this site, cookies collect data to enhance your experience and personalize the content and advertising you see.
Visit our Privacy Policy to learn more. By continuing to use the site, you agree to this use of cookies and data.
  • In United Kingdom
  • List of Countries
  • For 7 days
  • Water Temperature
  • Satellite Maps
  • Weather Map
  • Weather Widgets
  • user-avatar
    Login

    Hourly Weather Mohale's Hoek

    Today, 23 July, Tuesday

    Time Temperature Precipitation Wind Pressure Humidity
    00:00 +5°C° 0 mm 3 mps 630 mmHg 46%
    01:00 +5°C° 0 mm 3 mps 630 mmHg 46%
    02:00 +5°C° 0 mm 3 mps 630 mmHg 47%
    03:00 +4°C° 0 mm 3 mps 629 mmHg 48%
    04:00 +4°C° 0 mm 3 mps 629 mmHg 49%
    05:00 +4°C° 0 mm 3 mps 629 mmHg 50%
    06:00 +4°C° 0 mm 3 mps 629 mmHg 48%
    07:00 +5°C° 0 mm 3 mps 629 mmHg 47%
    08:00 +5°C° 0 mm 3 mps 629 mmHg 46%
    09:00 +8°C° 0 mm 5 mps 629 mmHg 39%
    10:00 +11°C° 0 mm 8 mps 630 mmHg 33%
    11:00 +13°C° 0 mm 10 mps 630 mmHg 26%
    12:00 +14°C° 0 mm 11 mps 629 mmHg 25%
    13:00 +15°C° 0 mm 12 mps 628 mmHg 23%
    14:00 +17°C° 0 mm 14 mps 627 mmHg 22%
    15:00 +17°C° 0 mm 13 mps 627 mmHg 21%
    16:00 +17°C° 0 mm 12 mps 627 mmHg 20%
    17:00 +17°C° 0 mm 11 mps 626 mmHg 19%
    18:00 +14°C° 0 mm 10 mps 626 mmHg 20%
    19:00 +13°C° 0 mm 9 mps 625 mmHg 21%
    20:00 +11°C° 0 mm 8 mps 625 mmHg 23%
    21:00 +10°C° 0 mm 8 mps 625 mmHg 25%
    22:00 +9°C° 0 mm 8 mps 625 mmHg 28%
    23:00 +7°C° 0 mm 9 mps 625 mmHg 30%

    Tomorrow, 24 July, Wednesday

    Time Temperature Precipitation Wind Pressure Humidity
    00:00 +5°C° 0 mm 9 mps 625 mmHg 44%
    01:00 +3°C° 0 mm 10 mps 625 mmHg 58%
    02:00 +2°C° 0 mm 11 mps 625 mmHg 73%
    03:00 +1°C° 0.1 mm 10 mps 626 mmHg 72%
    04:00 +1°C° 0.1 mm 9 mps 626 mmHg 70%
    05:00 0°C° 0.1 mm 8 mps 627 mmHg 69%
    06:00 -1°C° 0.1 mm 8 mps 628 mmHg 70%
    07:00 -1°C° 0.1 mm 8 mps 628 mmHg 70%
    08:00 -1°C° 0.1 mm 8 mps 629 mmHg 71%
    09:00 0°C° 0.1 mm 7 mps 629 mmHg 66%
    10:00 +2°C° 0.1 mm 6 mps 630 mmHg 61%
    11:00 +2°C° 0.1 mm 6 mps 630 mmHg 56%
    12:00 +5°C° 0 mm 5 mps 630 mmHg 49%
    13:00 +6°C° 0 mm 5 mps 630 mmHg 43%
    14:00 +7°C° 0 mm 4 mps 630 mmHg 37%
    15:00 +8°C° 0 mm 3 mps 630 mmHg 37%
    16:00 +8°C° 0 mm 2 mps 630 mmHg 38%
    17:00 +9°C° 0 mm 1 mps 630 mmHg 38%
    18:00 +7°C° 0 mm 1 mps 630 mmHg 42%
    19:00 +5°C° 0 mm 1 mps 630 mmHg 47%
    20:00 +3°C° 0 mm 1 mps 630 mmHg 51%
    21:00 +3°C° 0 mm 1 mps 630 mmHg 52%
    22:00 +3°C° 0 mm 1 mps 630 mmHg 53%
    23:00 +2°C° 0 mm 1 mps 631 mmHg 54%

    Day after tomorrow, 25 July, Thursday

    Time Temperature Precipitation Wind Pressure Humidity
    00:00 +2°C° 0 mm 1 mps 631 mmHg 56%
    01:00 +2°C° 0 mm 1 mps 630 mmHg 58%
    02:00 +1°C° 0 mm 1 mps 630 mmHg 60%
    03:00 +1°C° 0 mm 1 mps 630 mmHg 61%
    04:00 +1°C° 0 mm 1 mps 630 mmHg 61%
    05:00 +1°C° 0 mm 1 mps 630 mmHg 61%
    06:00 +2°C° 0 mm 1 mps 631 mmHg 56%
    07:00 +3°C° 0 mm 1 mps 631 mmHg 50%
    08:00 +4°C° 0 mm 1 mps 632 mmHg 44%
    09:00 +6°C° 0 mm 2 mps 633 mmHg 37%
    10:00 +9°C° 0 mm 3 mps 633 mmHg 29%
    11:00 +12°C° 0 mm 3 mps 634 mmHg 22%
    12:00 +13°C° 0 mm 4 mps 634 mmHg 20%
    13:00 +15°C° 0 mm 5 mps 634 mmHg 19%
    14:00 +16°C° 0 mm 5 mps 634 mmHg 18%
    15:00 +15°C° 0 mm 5 mps 634 mmHg 20%
    16:00 +14°C° 0 mm 4 mps 634 mmHg 21%
    17:00 +13°C° 0 mm 3 mps 634 mmHg 23%
    18:00 +11°C° 0 mm 3 mps 633 mmHg 27%
    19:00 +9°C° 0 mm 2 mps 633 mmHg 30%
    20:00 +7°C° 0 mm 2 mps 633 mmHg 33%
    21:00 +7°C° 0 mm 1 mps 633 mmHg 35%
    22:00 +6°C° 0 mm 1 mps 633 mmHg 36%
    23:00 +6°C° 0 mm 1 mps 633 mmHg 38%

    26 July, Friday

    Time Temperature Precipitation Wind Pressure Humidity
    00:00 +5°C° 0 mm 1 mps 633 mmHg 45%
    01:00 +4°C° 0 mm 0 mps 632 mmHg 51%
    02:00 +3°C° 0 mm 0 mps 632 mmHg 57%
    03:00 +4°C° 0 mm 1 mps 632 mmHg 58%
    04:00 +4°C° 0 mm 1 mps 632 mmHg 58%
    05:00 +4°C° 0 mm 1 mps 632 mmHg 59%
    06:00 +5°C° 0 mm 1 mps 633 mmHg 52%
    07:00 +6°C° 0 mm 1 mps 634 mmHg 46%
    08:00 +6°C° 0 mm 0 mps 634 mmHg 39%
    09:00 +9°C° 0 mm 0 mps 636 mmHg 33%
    10:00 +12°C° 0 mm 0 mps 637 mmHg 26%
    11:00 +15°C° 0 mm 0 mps 638 mmHg 19%
    12:00 +16°C° 0 mm 0 mps 637 mmHg 18%
    13:00 +17°C° 0 mm 0 mps 637 mmHg 16%
    14:00 +20°C° 0 mm 1 mps 637 mmHg 14%
    15:00 +18°C° 0 mm 1 mps 636 mmHg 18%
    16:00 +16°C° 0 mm 1 mps 636 mmHg 21%
    17:00 +15°C° 0 mm 1 mps 636 mmHg 24%
    18:00 +13°C° 0 mm 1 mps 635 mmHg 26%
    19:00 +10°C° 0 mm 0 mps 634 mmHg 27%
    20:00 +7°C° 0 mm 0 mps 634 mmHg 29%
    21:00 +7°C° 0 mm 0 mps 634 mmHg 31%
    22:00 +8°C° 0 mm 1 mps 634 mmHg 34%
    23:00 +7°C° 0 mm 1 mps 634 mmHg 37%

    27 July, Saturday

    Time Temperature Precipitation Wind Pressure Humidity
    00:00 +7°C° 0 mm 1 mps 633 mmHg 38%
    01:00 +7°C° 0 mm 1 mps 633 mmHg 40%
    02:00 +7°C° 0 mm 1 mps 633 mmHg 41%
    03:00 +6°C° 0 mm 1 mps 633 mmHg 43%
    04:00 +6°C° 0 mm 1 mps 633 mmHg 44%
    05:00 +6°C° 0 mm 1 mps 633 mmHg 46%
    06:00 +7°C° 0 mm 1 mps 634 mmHg 42%
    07:00 +7°C° 0 mm 2 mps 635 mmHg 37%
    08:00 +8°C° 0 mm 2 mps 635 mmHg 33%
    09:00 +11°C° 0 mm 3 mps 636 mmHg 28%
    10:00 +14°C° 0 mm 4 mps 637 mmHg 24%
    11:00 +16°C° 0 mm 5 mps 637 mmHg 20%
    12:00 +17°C° 0 mm 5 mps 637 mmHg 19%
    13:00 +19°C° 0 mm 6 mps 636 mmHg 19%
    14:00 +20°C° 0 mm 6 mps 636 mmHg 18%
    15:00 +19°C° 0 mm 5 mps 635 mmHg 20%
    16:00 +18°C° 0 mm 4 mps 635 mmHg 21%
    17:00 +17°C° 0 mm 3 mps 635 mmHg 23%
    18:00 +14°C° 0 mm 3 mps 634 mmHg 26%
    19:00 +13°C° 0 mm 2 mps 634 mmHg 29%
    20:00 +10°C° 0 mm 2 mps 633 mmHg 33%
    21:00 +9°C° 0 mm 2 mps 633 mmHg 33%
    22:00 +9°C° 0 mm 2 mps 633 mmHg 34%
    23:00 +8°C° 0 mm 2 mps 633 mmHg 35%

    28 July, Sunday

    Time Temperature Precipitation Wind Pressure Humidity
    00:00 +8°C° 0 mm 2 mps 633 mmHg 37%
    01:00 +8°C° 0 mm 2 mps 632 mmHg 38%
    02:00 +7°C° 0 mm 2 mps 632 mmHg 40%
    03:00 +8°C° 0 mm 1 mps 632 mmHg 43%
    04:00 +7°C° 0 mm 1 mps 632 mmHg 46%
    05:00 +7°C° 0 mm 1 mps 631 mmHg 49%
    06:00 +8°C° 0 mm 1 mps 632 mmHg 45%
    07:00 +9°C° 0 mm 1 mps 633 mmHg 41%
    08:00 +10°C° 0 mm 1 mps 633 mmHg 37%
    09:00 +13°C° 0 mm 1 mps 634 mmHg 32%
    10:00 +16°C° 0 mm 2 mps 634 mmHg 26%
    11:00 +18°C° 0 mm 2 mps 635 mmHg 21%
    12:00 +20°C° 0 mm 3 mps 635 mmHg 19%
    13:00 +21°C° 0 mm 3 mps 634 mmHg 17%
    14:00 +22°C° 0 mm 3 mps 634 mmHg 15%
    15:00 +21°C° 0 mm 3 mps 633 mmHg 18%
    16:00 +19°C° 0 mm 2 mps 633 mmHg 20%
    17:00 +18°C° 0 mm 2 mps 632 mmHg 22%
    18:00 +16°C° 0 mm 2 mps 632 mmHg 24%
    19:00 +14°C° 0 mm 2 mps 631 mmHg 26%
    20:00 +12°C° 0 mm 2 mps 631 mmHg 29%
    21:00 +12°C° 0 mm 2 mps 631 mmHg 30%
    22:00 +12°C° 0 mm 2 mps 630 mmHg 30%
    23:00 +10°C° 0 mm 2 mps 630 mmHg 31%
    Show more